, FL

(GMT )
Bonifay

Weather History for K1J0 - July, 2019

Change the Weather History Date:

Wednesday, July 31, 2019

  Actual Average Record
Temperature  
Mean Temperature 82 °F -  
Max Temperature 95 °F - - ()
Min Temperature 69 °F - - ()
Cooling Degree Days 17    
Growing Degree Days 32 (Base 50)    
Moisture  
Dew Point 69 °F    
Average Humidity 68    
Maximum Humidity 100    
Minimum Humidity 36    
Precipitation  
Precipitation 0.00 in - - ()
Sea Level Pressure  
Sea Level Pressure 29.92 in    
Wind  
Wind Speed 2 mph (SSE)    
Max Wind Speed 7 mph    
Max Gust Speed -    
Visibility 10 miles    
Events      
Averages and records for this station are not official NWS values.
T = Trace of Precipitation, MM = Missing Value Source: NWS Daily Summary

Daily Weather History Graph

Daily Weather History Graph

Search for Another Location

Airport or City:

Astronomy

Jul. 31, 2019 Rise Set
Actual Time 6:59 AM EDT 8:38 PM EDT
Civil Twilight 6:32 AM EDT 9:04 PM EDT
Nautical Twilight 6:01 AM EDT 9:35 PM EDT
Astronomical Twilight 5:28 AM EDT 10:08 PM EDT
Moon 6:15 AM EDT (7/31) 8:34 PM EDT (7/31)
Length of Visible Light 14h 31m
Length of Day
13h 38m
Waning Crescent, 0% of the Moon is Illuminated
Jul 31
Waning Crescent
Jul 31
New
Aug 7
First Quarter
Aug 15
Full
Aug 23
Last Quarter

Hourly Weather History & Observations

Time (EDT) Temp. Heat Index Dew Point Humidity Pressure Visibility Wind Dir Wind Speed Gust Speed Precip Events Conditions
12:58 AM 73.9 °F - 71.1 °F 91% 29.94 in 10.0 mi Calm Calm - N/A   Clear
1:58 AM 73.0 °F - 70.0 °F 90% 29.93 in 10.0 mi Calm Calm - N/A   Clear
2:58 AM 73.0 °F - 70.0 °F 90% 29.91 in 10.0 mi Calm Calm - N/A   Clear
3:58 AM 72.0 °F - 70.0 °F 93% 29.90 in 10.0 mi Calm Calm - N/A   Clear
4:58 AM 71.1 °F - 69.1 °F 93% 29.90 in 10.0 mi Calm Calm - N/A   Clear
5:58 AM 70.0 °F - 69.1 °F 97% 29.91 in 10.0 mi Calm Calm - N/A   Clear
6:58 AM 69.1 °F - 69.1 °F 100% 29.92 in 8.0 mi Calm Calm - N/A   Clear
7:58 AM 72.0 °F - 70.0 °F 93% 29.94 in 9.0 mi Calm Calm - N/A   Clear
8:58 AM 79.0 °F - 71.1 °F 77% 29.95 in 10.0 mi Calm Calm - N/A   Clear
9:58 AM 86.0 °F 90.7 °F 70.0 °F 59% 29.96 in - East 3.5 mph - N/A   Clear
10:58 AM 89.1 °F 94.1 °F 70.0 °F 53% 29.96 in 10.0 mi ENE 4.6 mph - N/A   Clear
11:58 AM 91.0 °F 94.3 °F 66.9 °F 45% 29.96 in 10.0 mi Variable 4.6 mph - N/A   Clear
12:58 PM 93.9 °F 96.1 °F 64.9 °F 38% 29.95 in 10.0 mi Variable 5.8 mph - N/A   Scattered Clouds
1:58 PM 93.9 °F 96.1 °F 64.9 °F 38% 29.94 in 10.0 mi SSE 5.8 mph - N/A   Clear
2:58 PM 95.0 °F 97.4 °F 64.9 °F 37% 29.92 in 10.0 mi Variable 3.5 mph - N/A   Scattered Clouds
3:58 PM 93.0 °F 94.6 °F 64.0 °F 38% 29.89 in 10.0 mi Variable 4.6 mph - N/A   Partly Cloudy
5:58 PM 95.0 °F 97.0 °F 64.0 °F 36% 29.86 in 10.0 mi ESE 4.6 mph - N/A   Clear
7:58 PM 89.1 °F 94.1 °F 70.0 °F 53% 29.88 in 10.0 mi SW 6.9 mph - N/A   Mostly Cloudy
8:58 PM 84.9 °F 89.4 °F 70.0 °F 61% 29.91 in 10.0 mi SW 5.8 mph - N/A   Clear
10:58 PM 81.0 °F 84.1 °F 69.1 °F 67% 29.93 in 10.0 mi SW 4.6 mph - N/A   Scattered Clouds
11:58 PM 78.1 °F - 71.1 °F 79% 29.93 in 10.0 mi Calm Calm - N/A   Clear